Regional Weather Roundup
Issued by NWS

Home | Current Version | Previous Version | Graphics & Text | Print | Product List | Glossary On
Versions: 1 2 3 4 5 6 7 8 9 10 11 12 13 14 15 16 17 18 19 20 21 22 23 24 25 26 27 28 29 30 31 32 33 34 35 36 37 38 39 40 41 42 43 44 45 46 47 48 49 50
000
ASUS45 KABQ 231201
RWRNM
NEW MEXICO REGIONAL WEATHER ROUNDUP
NATIONAL WEATHER SERVICE ALBUQUERQUE NM
600 AM MDT SUN APR 23 2017

NOTE: "FAIR" MEANS FEW OR NO CLOUDS BELOW 12,000 FEET AGL WITH NO
       SIGNIFICANT WEATHER OR OBSTRUCTIONS TO VISION.

      THIS PRODUCT IS RELEASED AS TWO VERSIONS.  ONE VERSION NEAR
      THE TOP OF THE HOUR CONTAINING PRELIMINARY DATA FROM ALBUQUERQUE
      AND OTHER STATIONS.  A FINAL VERSION WITH ADDITIONAL DATA IS
      ISSUED ABOUT 10 MINUTES AFTER THE HOUR.

NMZ501-503-504-510>518-231300-
NORTHWEST PLATEAU/NORTHCENTRAL MOUNTAINS

CITY           SKY/WX    TMP DP  RH WIND       PRES   REMARKS
FARMINGTON     FAIR      40  24  53 E8        30.12S WCI  34
6HR MIN TEMP:  38; 6HR MAX TEMP:  44;

LOS ALAMOS     FAIR      37  27  67 SW9       30.26F WCI  30
SANTA FE       FAIR      37  28  70 SE7       30.24F WCI  32
6HR MIN TEMP:  36; 6HR MAX TEMP:  45;

TAOS             N/A     30  19  64 CALM      30.27R
ANGEL FIRE     FAIR      31  26  81 S8        30.25F WCI  24

$$
NMZ402-403-502-505>509-231300-
WESTCENTRAL MOUNTAINS/SOUTHWEST MOUNTAINS

CITY           SKY/WX    TMP DP  RH WIND       PRES   REMARKS
GALLUP         FAIR      34  21  59 CALM      30.14S
6HR MIN TEMP:  32; 6HR MAX TEMP:  44;

GRANTS         FAIR      40  28  62 S14G20    30.21S WCI  32
SILVER CITY    FAIR      44  32  63 SE5       30.20R

$$
NMZ407-409-411-412-231300-
SOUTHERN DESERTS

CITY           SKY/WX    TMP DP  RH WIND       PRES   REMARKS
DEMING         FAIR      48  34  58 E10       30.17R
6HR MIN TEMP:  47; 6HR MAX TEMP:  61;

LAS CRUCES     FAIR      51  33  49 SE12G17   30.19R
HOLLOMAN AFB   FAIR      43  29  59 NE8       30.23S
ALAMOGORDO     FAIR      48  32  53 NE8       30.21R
T OR C         FAIR      50  30  46 CALM      30.19R
6HR MIN TEMP:  49; 6HR MAX TEMP:  60;


$$
NMZ519>523-231300-
CENTRAL VALLEYS/CENTRAL HIGHLANDS

CITY           SKY/WX    TMP DP  RH WIND       PRES   REMARKS
ALBUQUERQUE    FAIR      47  29  49 NE7       30.21S
6HR MIN TEMP:  47; 6HR MAX TEMP:  49;

DOUBLE EAGLE   PTCLDY    36  27  69 NW7       30.22  WCI  30
MORIARTY ARPT  FAIR      26  23  89 N5        30.27F WCI  21
6HR MIN TEMP:  26; 6HR MAX TEMP:  41;

CLINES CORNERS FAIR      32  26  78 S10       30.26F WCI  24
6HR MIN TEMP:  31; 6HR MAX TEMP:  34;

BELEN          FAIR      41  28  60 NW9       30.21S
6HR MIN TEMP:  41; 6HR MAX TEMP:  54;

SOCORRO        FAIR      40  28  61 NW3       30.20F
6HR MIN TEMP:  40; 6HR MAX TEMP:  55;


$$
NMZ524>526-539-540-231300-
SOUTHCENTRAL MOUNTAINS

CITY           SKY/WX    TMP DP  RH WIND       PRES   REMARKS
RUIDOSO        NOT AVBL

$$
NMZ527>531-231300-
NORTHEAST HIGHLANDS/NORTHEAST PLAINS

CITY           SKY/WX    TMP DP  RH WIND       PRES   REMARKS
LAS VEGAS      FAIR      31  26  82 S14       30.24F WCI  21
6HR MIN TEMP:  28; 6HR MAX TEMP:  37;

RATON          FAIR      32  25  75 SW5       30.20F WCI  27
6HR MIN TEMP:  29; 6HR MAX TEMP:  34;

CLAYTON        FAIR      35  29  78 SW10      30.19F WCI  27
6HR MIN TEMP:  34; 6HR MAX TEMP:  40;


$$
NMZ532>537-231300-
EASTCENTRAL PLAINS

CITY           SKY/WX    TMP DP  RH WIND       PRES   REMARKS
SANTA ROSA     FAIR      34  28  77 CALM      30.25S
TUCUMCARI      FAIR      37  30  75 SW8       30.22F WCI  31
6HR MIN TEMP:  36; 6HR MAX TEMP:  47;

CANNON AFB     FAIR      38  33  81 CALM      30.25F
6HR MIN TEMP:  35; 6HR MAX TEMP:  43;

CLOVIS AIRPORT FAIR      36  27  69 W5        30.26S WCI  32

$$
NMZ028-029-538-231300-
SOUTHEAST PLAINS

CITY           SKY/WX    TMP DP  RH WIND       PRES   REMARKS
ROSWELL        FAIR      42  32  67 SW5         N/A
6HR MIN TEMP:  42; 6HR MAX TEMP:  57;

ARTESIA        FAIR      45  34  65 S3        30.27S
CARLSBAD       FAIR      45  35  68 S6        30.25S
6HR MIN TEMP:  43; 6HR MAX TEMP:  55;

HOBBS          CLEAR     41  32  70 CALM      30.27S


$$




USA.gov is the U.S. government's official web portal to all federal, state and local government web resources and services.